Flag for Ireland Weather past 2 weeks in Limerick, Ireland

Now
64 °F

Partly sunny.


Feels Like: 64 °F
Forecast: 53 / 67 °F
Wind: 13 mph from Southwest

Location: Shannon Airport

Current Time: Jul 31, 2014 at 7:25:58 PM

Latest Report: Jul 31, 2014 at 7:00 PM


Visibility: N/A

Pressure: 29.83 "Hg

Humidity: 64%

Dew point: 52 °F

Location of LimerickLocation

Historic Weather in Limerick — Graph

°F

Limerick temperature yesterday

Maximum temperature yesterday: 68 °F (at 2:30 PM)
Minimum temperature yesterday: 57 °F (at 4:00 AM)
Average temperature yesterday: 63 °F

Past Weeks' High & Low Weather Summary

 TemperatureHumidityPressure
High81 °F (Jul 25, 4:00 PM)100% (Jul 19, 7:30 AM)30.18 "Hg (Jul 19, 7:30 AM)
Low55 °F (Jul 17, 4:00 AM)45% (Jul 25, 4:30 PM)29.68 "Hg (Jul 19, 4:00 PM)
Average65 °F79%30.04 "Hg
* Reported Jul 16 6:00 PM — Jul 31 6:30 PM, Limerick, Weather by CustomWeather, © 2014

Note: Actual official high and low records may vary slightly from our data, if they occured in-between our weather recording intervals... More about our weather records

Advertising

Limerick weather history for previous 24 hours

 ConditionsComfort  
Time TempWeatherWind HumidityBarometerVisibility
6:30 PM
Jul 31
64 °FBroken clouds.12 mph68%29.83 "HgN/A
6:00 PM64 °FBroken clouds.12 mph64%29.83 "HgN/A
5:30 PM66 °FBroken clouds.15 mph60%29.83 "HgN/A
5:00 PM66 °FBroken clouds.14 mph60%29.83 "HgN/A
4:30 PM64 °FBroken clouds.13 mph78%29.83 "HgN/A
4:00 PM66 °FBroken clouds.15 mph68%29.86 "HgN/A
3:30 PM64 °FBroken clouds.15 mph78%29.86 "HgN/A
3:00 PM64 °FBroken clouds.16 mph78%29.86 "HgN/A
2:30 PM66 °FPartly sunny.20 mph68%29.86 "HgN/A
2:00 PM66 °FPartly sunny.18 mph68%29.86 "HgN/A
1:30 PM68 °FPartly sunny.17 mph64%29.86 "HgN/A
1:00 PM64 °FPartly sunny.15 mph73%29.89 "HgN/A
12:30 PM64 °FPartly sunny.16 mph73%29.89 "HgN/A
12:00 PM64 °FBroken clouds.16 mph78%29.89 "HgN/A
11:30 AM64 °FBroken clouds.16 mph78%29.89 "HgN/A
11:00 AM66 °FBroken clouds.16 mph78%29.89 "HgN/A
10:30 AM64 °FBroken clouds.14 mph78%29.89 "HgN/A
10:00 AM63 °FPartly sunny.9 mph88%29.89 "HgN/A
9:30 AM63 °FBroken clouds.12 mph88%29.92 "HgN/A
9:00 AM61 °FBroken clouds.9 mph94%29.92 "HgN/A
8:30 AM61 °FPartly sunny.9 mph94%29.92 "HgN/A
8:00 AM61 °FDrizzle. Broken clouds.9 mph94%29.92 "Hg4 mi
7:30 AM61 °FDrizzle. Broken clouds.10 mph94%29.92 "Hg2 mi
7:00 AM61 °FBroken clouds.8 mph94%29.92 "Hg5 mi
6:30 AM61 °FPartly cloudy.7 mph94%29.92 "Hg2 mi
6:00 AM61 °FPassing clouds.5 mph88%29.92 "Hg4 mi
5:30 AM61 °FPassing clouds.8 mph88%29.92 "Hg5 mi
5:00 AM61 °FPassing clouds.7 mph88%29.92 "HgN/A
4:30 AM61 °FPassing clouds.6 mph88%29.95 "HgN/A
4:00 AM61 °FPartly cloudy.7 mph83%29.95 "HgN/A
3:30 AM61 °FPartly cloudy.6 mph83%29.95 "HgN/A
3:00 AM61 °FPartly cloudy.8 mph83%29.95 "HgN/A
2:30 AM61 °FPartly cloudy.8 mph83%29.95 "HgN/A
2:00 AM61 °FPartly cloudy.7 mph88%29.98 "HgN/A
1:30 AM61 °FPartly cloudy.7 mph88%29.98 "HgN/A
1:00 AM61 °FPartly cloudy.7 mph88%29.98 "HgN/A
12:30 AM61 °FPartly cloudy.8 mph88%29.98 "HgN/A
12:00 AM61 °FPartly cloudy.7 mph88%29.98 "HgN/A
11:30 PM
Jul 30
61 °FPassing clouds.8 mph94%29.98 "HgN/A
11:00 PM61 °FPassing clouds.9 mph94%29.98 "HgN/A
10:30 PM61 °FBroken clouds.8 mph94%29.98 "HgN/A
10:00 PM61 °FBroken clouds.10 mph94%30.01 "HgN/A
9:30 PM63 °FBroken clouds.10 mph88%29.98 "HgN/A
9:00 PM64 °FDrizzle. Broken clouds.10 mph83%29.98 "HgN/A
8:30 PM64 °FPartly sunny.13 mph83%30.01 "HgN/A
8:00 PM64 °FBroken clouds.12 mph83%30.01 "HgN/A
7:30 PM64 °FBroken clouds.13 mph83%29.98 "HgN/A
7:00 PM64 °FBroken clouds.16 mph83%30.01 "HgN/A
Weather by CustomWeather, © 2014

See weather overviewHow to use our weather pages